Location: Rodson Ranch
(38.7188°N, 119.3202°W)
Time: 13:30:36
(UTC+00:00)

ATLAS 3B R/B - Pass Details

Date: 29 October 2020
Orbit: 1014 x 1181 km, 63.8° (Epoch: 23 November)

Event Time Altitude Azimuth Distance (km) Brightness Sun altitude
Exits shadow 12:44:57 32° 262° (W) 1,679 3.2 -19.4°
Maximum altitude 12:47:26 45° 310° (NW) 1,367 2.9 -18.9°
Drops below altitude 10° 12:53:46 10° 22° (NNE) 2,835 5.1 -17.7°
Sets 12:56:34 0° 29° (NNE) 3,809 5.9 -17.1°
